Location: Unspecified
(0.0000°N, 0.0000°E)
Time: 20:04:57
(UTC+00:00)

ISS - Pass Details

Date: 28 March 2018
Orbit: 417 x 425 km, 51.6° (Epoch: 29 March)

Event Time Altitude Azimuth Distance (km) Brightness Sun altitude
Rises 19:43:38 0° 326° (NNW) 2,352 0.6 -24.6°
Reaches altitude 10° 19:45:42 10° 328° (NNW) 1,483 -0.6 -25.1°
Enters shadow 19:46:40 18° 329° (NNW) 1,090 -1.3 -25.4°
